When you browse on this site, cookies collect data to enhance your experience and personalize the content and advertising you see.
Visit our Privacy Policy to learn more. By continuing to use the site, you agree to this use of cookies and data.
  • In Österreich
  • Länderverzeichnis
  • Für 7 Tage
  • Wassertemperatur
  • Satellitenkarten
  • Wetterkarte
  • News
  • Widgets
  • user-avatar
    Anmelden

    Stündliche Wetter Syracuse

    Heute, 22 April, Montag

    Zeit Temperatur Niederschläge Wind Luftdruck Luftfeuchtigkeit
    00:00 +6°C° 0 mm 0 m/S 753 mmHg 93%
    01:00 +7°C° 0 mm 1 m/S 753 mmHg 93%
    02:00 +7°C° 0 mm 1 m/S 753 mmHg 93%
    03:00 +6°C° 0 mm 1 m/S 753 mmHg 94%
    04:00 +6°C° 0 mm 1 m/S 753 mmHg 95%
    05:00 +7°C° 0 mm 1 m/S 754 mmHg 93%
    06:00 +8°C° 0 mm 1 m/S 754 mmHg 91%
    07:00 +9°C° 0 mm 1 m/S 754 mmHg 87%
    08:00 +10°C° 0 mm 2 m/S 754 mmHg 81%
    09:00 +12°C° 0 mm 2 m/S 754 mmHg 75%
    10:00 +13°C° 0 mm 3 m/S 754 mmHg 69%
    11:00 +14°C° 0 mm 3 m/S 754 mmHg 67%
    12:00 +16°C° 0 mm 3 m/S 753 mmHg 64%
    13:00 +17°C° 0 mm 4 m/S 753 mmHg 62%
    14:00 +17°C° 0 mm 4 m/S 752 mmHg 63%
    15:00 +17°C° 0 mm 3 m/S 752 mmHg 64%
    16:00 +17°C° 0 mm 3 m/S 752 mmHg 64%
    17:00 +14°C° 0 mm 3 m/S 751 mmHg 72%
    18:00 +13°C° 0 mm 2 m/S 751 mmHg 80%
    19:00 +10°C° 0 mm 2 m/S 751 mmHg 87%
    20:00 +11°C° 0 mm 1 m/S 751 mmHg 88%
    21:00 +10°C° 0 mm 1 m/S 752 mmHg 89%
    22:00 +10°C° 0 mm 1 m/S 752 mmHg 90%
    23:00 +10°C° 0 mm 1 m/S 752 mmHg 91%

    Morgen, 23 April, Dienstag

    Zeit Temperatur Niederschläge Wind Luftdruck Luftfeuchtigkeit
    00:00 +10°C° 0 mm 1 m/S 752 mmHg 91%
    01:00 +10°C° 0 mm 1 m/S 752 mmHg 92%
    02:00 +9°C° 0 mm 1 m/S 751 mmHg 93%
    03:00 +9°C° 0 mm 1 m/S 751 mmHg 93%
    04:00 +9°C° 0 mm 1 m/S 750 mmHg 93%
    05:00 +10°C° 0 mm 1 m/S 750 mmHg 90%
    06:00 +11°C° 0 mm 1 m/S 749 mmHg 87%
    07:00 +12°C° 0 mm 1 m/S 749 mmHg 84%
    08:00 +15°C° 0 mm 2 m/S 748 mmHg 76%
    09:00 +18°C° 0 mm 2 m/S 748 mmHg 67%
    10:00 +20°C° 0 mm 3 m/S 747 mmHg 59%
    11:00 +22°C° 0 mm 3 m/S 746 mmHg 56%
    12:00 +23°C° 0 mm 4 m/S 745 mmHg 53%
    13:00 +25°C° 0 mm 5 m/S 745 mmHg 49%
    14:00 +25°C° 0.1 mm 5 m/S 744 mmHg 54%
    15:00 +23°C° 0.1 mm 5 m/S 743 mmHg 59%
    16:00 +23°C° 0.1 mm 5 m/S 742 mmHg 63%
    17:00 +21°C° 1.7 mm 5 m/S 742 mmHg 71%
    18:00 +19°C° 1.7 mm 6 m/S 742 mmHg 80%
    19:00 +16°C° 1.7 mm 6 m/S 741 mmHg 88%
    20:00 +15°C° 0.1 mm 6 m/S 742 mmHg 88%
    21:00 +14°C° 0.1 mm 6 m/S 742 mmHg 88%
    22:00 +13°C° 0.1 mm 6 m/S 742 mmHg 88%
    23:00 +10°C° 0 mm 6 m/S 742 mmHg 87%

    übermorgen, 24 April, Mittwoch

    Zeit Temperatur Niederschläge Wind Luftdruck Luftfeuchtigkeit
    00:00 +8°C° 0 mm 6 m/S 743 mmHg 87%
    01:00 +7°C° 0 mm 6 m/S 743 mmHg 86%
    02:00 +5°C° 0 mm 6 m/S 743 mmHg 85%
    03:00 +5°C° 0 mm 6 m/S 743 mmHg 84%
    04:00 +4°C° 0 mm 6 m/S 743 mmHg 83%
    05:00 +4°C° 0 mm 6 m/S 744 mmHg 82%
    06:00 +4°C° 0 mm 7 m/S 744 mmHg 80%
    07:00 +4°C° 0 mm 7 m/S 744 mmHg 79%
    08:00 +5°C° 0 mm 7 m/S 744 mmHg 76%
    09:00 +6°C° 0 mm 7 m/S 744 mmHg 73%
    10:00 +6°C° 0 mm 8 m/S 744 mmHg 69%
    11:00 +8°C° 0 mm 7 m/S 745 mmHg 67%
    12:00 +9°C° 0 mm 7 m/S 745 mmHg 65%
    13:00 +10°C° 0 mm 7 m/S 745 mmHg 63%
    14:00 +10°C° 0 mm 7 m/S 745 mmHg 63%
    15:00 +10°C° 0 mm 7 m/S 745 mmHg 62%
    16:00 +10°C° 0 mm 6 m/S 745 mmHg 62%
    17:00 +9°C° 0 mm 5 m/S 745 mmHg 67%
    18:00 +8°C° 0 mm 4 m/S 746 mmHg 71%
    19:00 +7°C° 0 mm 2 m/S 746 mmHg 75%
    20:00 +7°C° 0 mm 2 m/S 746 mmHg 78%
    21:00 +6°C° 0 mm 2 m/S 747 mmHg 81%
    22:00 +5°C° 0 mm 2 m/S 747 mmHg 84%
    23:00 +5°C° 0 mm 2 m/S 747 mmHg 86%

    25 April, Donnerstag

    Zeit Temperatur Niederschläge Wind Luftdruck Luftfeuchtigkeit
    00:00 +4°C° 0 mm 2 m/S 747 mmHg 89%
    01:00 +4°C° 0 mm 2 m/S 747 mmHg 91%
    02:00 +4°C° 0 mm 2 m/S 747 mmHg 91%
    03:00 +3°C° 0 mm 2 m/S 747 mmHg 92%
    04:00 +3°C° 0 mm 2 m/S 747 mmHg 92%
    05:00 +4°C° 0 mm 2 m/S 748 mmHg 87%
    06:00 +6°C° 0 mm 2 m/S 748 mmHg 82%
    07:00 +7°C° 0 mm 2 m/S 748 mmHg 77%
    08:00 +9°C° 0 mm 2 m/S 748 mmHg 69%
    09:00 +12°C° 0 mm 2 m/S 747 mmHg 60%
    10:00 +15°C° 0 mm 2 m/S 747 mmHg 51%
    11:00 +16°C° 0 mm 2 m/S 747 mmHg 47%
    12:00 +17°C° 0 mm 2 m/S 746 mmHg 43%
    13:00 +18°C° 0 mm 2 m/S 746 mmHg 39%
    14:00 +19°C° 0 mm 2 m/S 745 mmHg 40%
    15:00 +19°C° 0 mm 2 m/S 745 mmHg 42%
    16:00 +20°C° 0 mm 2 m/S 744 mmHg 43%
    17:00 +18°C° 0 mm 2 m/S 744 mmHg 49%
    18:00 +16°C° 0 mm 2 m/S 744 mmHg 54%
    19:00 +14°C° 0 mm 1 m/S 744 mmHg 59%
    20:00 +13°C° 0 mm 2 m/S 744 mmHg 60%
    21:00 +13°C° 0 mm 2 m/S 744 mmHg 61%
    22:00 +12°C° 0 mm 2 m/S 744 mmHg 62%
    23:00 +12°C° 0 mm 2 m/S 743 mmHg 63%

    26 April, Freitag

    Zeit Temperatur Niederschläge Wind Luftdruck Luftfeuchtigkeit
    00:00 +12°C° 0 mm 2 m/S 742 mmHg 63%
    01:00 +12°C° 0 mm 2 m/S 742 mmHg 63%
    02:00 +12°C° 1.3 mm 2 m/S 741 mmHg 73%
    03:00 +12°C° 1.3 mm 2 m/S 740 mmHg 82%
    04:00 +10°C° 1.3 mm 2 m/S 739 mmHg 92%
    05:00 +10°C° 2.9 mm 2 m/S 739 mmHg 93%
    06:00 +10°C° 2.9 mm 2 m/S 739 mmHg 95%
    07:00 +11°C° 2.9 mm 1 m/S 739 mmHg 96%
    08:00 +12°C° 0.9 mm 2 m/S 738 mmHg 95%
    09:00 +12°C° 0.9 mm 2 m/S 738 mmHg 94%
    10:00 +12°C° 0.9 mm 2 m/S 738 mmHg 93%
    11:00 +11°C° 0.2 mm 3 m/S 738 mmHg 91%
    12:00 +11°C° 0.2 mm 4 m/S 738 mmHg 89%
    13:00 +10°C° 0.2 mm 5 m/S 738 mmHg 87%
    14:00 +11°C° 0 mm 6 m/S 739 mmHg 80%
    15:00 +11°C° 0 mm 7 m/S 739 mmHg 72%
    16:00 +12°C° 0 mm 7 m/S 739 mmHg 65%
    17:00 +10°C° 0 mm 7 m/S 740 mmHg 58%
    18:00 +9°C° 0 mm 7 m/S 741 mmHg 52%
    19:00 +6°C° 0 mm 7 m/S 741 mmHg 45%
    20:00 +6°C° 0 mm 7 m/S 742 mmHg 48%
    21:00 +5°C° 0 mm 7 m/S 743 mmHg 51%
    22:00 +5°C° 0 mm 7 m/S 744 mmHg 55%
    23:00 +5°C° 0 mm 6 m/S 744 mmHg 58%

    27 April, Samstag

    Zeit Temperatur Niederschläge Wind Luftdruck Luftfeuchtigkeit
    00:00 +5°C° 0 mm 6 m/S 745 mmHg 61%
    01:00 +5°C° 0 mm 5 m/S 745 mmHg 64%
    02:00 +3°C° 0 mm 5 m/S 746 mmHg 66%
    03:00 +2°C° 0 mm 5 m/S 746 mmHg 68%
    04:00 +3°C° 0 mm 4 m/S 747 mmHg 70%
    05:00 +2°C° 0 mm 5 m/S 748 mmHg 65%
    06:00 +2°C° 0 mm 6 m/S 748 mmHg 61%
    07:00 +3°C° 0 mm 6 m/S 749 mmHg 56%
    08:00 +4°C° 0 mm 7 m/S 749 mmHg 51%
    09:00 +6°C° 0 mm 7 m/S 750 mmHg 47%
    10:00 +8°C° 0 mm 7 m/S 750 mmHg 42%
    11:00 +9°C° 0 mm 7 m/S 749 mmHg 41%
    12:00 +10°C° 0 mm 6 m/S 749 mmHg 41%
    13:00 +10°C° 0 mm 6 m/S 749 mmHg 40%
    14:00 +12°C° 0 mm 5 m/S 749 mmHg 40%
    15:00 +12°C° 0 mm 5 m/S 748 mmHg 41%
    16:00 +12°C° 0 mm 4 m/S 748 mmHg 41%
    17:00 +10°C° 0 mm 3 m/S 749 mmHg 46%
    18:00 +9°C° 0 mm 2 m/S 749 mmHg 50%
    19:00 +8°C° 0 mm 0 m/S 749 mmHg 55%
    20:00 +9°C° 0 mm 1 m/S 749 mmHg 54%
    21:00 +9°C° 0 mm 1 m/S 749 mmHg 53%
    22:00 +8°C° 0 mm 2 m/S 749 mmHg 52%
    23:00 +8°C° 0 mm 2 m/S 749 mmHg 55%
    Mehr zeigen